Вернуться в каталог

COSMOS 830

АктивенВоенныеLEO
NORAD 8894·PAYLOAD·🇷🇺 Russia

Запущен Jun 15, 1976 с Plesetsk Cosmodrome

Loading…

Ближайшие Пролёты (ближайшие 24 часа)

TLE

СвежийSource: Space-Track

Эпоха: Sep 13, 2026, 15:29 UTC

1 08894U 76054F   26256.64554738  .00000004  00000-0  13871-3 0  9991
2 08894  74.0044 337.0607 0015746 191.8681 342.9236 12.46261449285893

Отслеживайте COSMOS 830 в реальном времени с AllMySat

Download on the App Store